[[{"header":{"parameterUnit":"m.s-1","parameterCategory":1,"la1":30.2991,"la2":30.254,"lo1":-89.0895,"lo2":-89.0444,"dy":0.0017,"dx":0.0017,"nx":28,"ny":28,"refTime":"2024-06-23T03:00:00:Z","depth":0,"parameterNumber":2,"parameterNumberName":"U-component_of_WINDS"},"data":[0,0,0,0,0,0,0,0,0,0,0,0,0,0,0,0,0,0,0,0,0,0,0,0,0,0,0,0,0,0,0,0,0,0,0,0,0,0,0,0,0,0,0,0,0,0,0,0,0,0,0,0,0,0,0,0,0,0,2.1344,2.1345,0,2.1425,2.1426,2.1427,2.1443,2.1443,2.1442,2.1441,2.1522,2.1524,2.1527,0,0,0,0,0,0,0,0,0,0,0,0,0,2.12,2.1202,2.1344,2.1345,2.1346,2.1425,2.1426,2.1427,2.1443,2.1443,2.1442,2.1441,2.1521,2.1524,2.1527,0,0,0,0,0,0,0,0,0,0,0,0,0,2.127,2.1203,2.1344,2.1364,2.1366,2.1425,2.1426,2.1428,2.1443,2.1442,2.1442,2.1441,2.152,2.1524,2.1528,2.1572,0,0,2.154,2.1542,0,0,0,0,0,0,0,0,2.1266,2.1275,2.136,2.1363,2.1366,2.1423,2.1405,2.1476,2.1444,2.1414,2.1441,2.144,2.149,2.1496,2.1513,2.1575,2.1579,2.1541,2.1543,2.1545,2.1546,0,0,0,0,0,0,0,2.1261,2.1272,2.1376,2.1361,2.1365,2.1367,2.1376,2.1418,2.1456,2.1417,2.1418,2.1427,2.1491,2.1509,2.1515,2.158,2.154,2.1544,2.1547,2.1548,2.168,2.1681,0,0,0,0,0,0,2.1253,2.1267,2.1374,2.1379,2.1312,2.1371,2.1381,2.1406,2.1456,2.1462,2.1428,2.1428,2.1503,2.151,2.1518,2.1571,2.1545,2.1549,2.1551,2.1679,2.168,2.1681,0,0,0,0,0,0,2.125,2.1262,2.1371,2.1324,2.1338,2.1374,2.1402,2.1408,2.1426,2.1464,2.1471,2.144,2.1502,2.1512,2.1558,2.1574,2.155,2.1554,2.1678,2.1679,2.1681,2.1678,0,0,0,0,0,0,2.1246,2.1261,2.1279,2.1324,2.134,2.141,2.1403,2.141,2.1433,2.1434,2.1477,2.1484,2.1502,2.1552,2.1562,2.1579,2.1557,2.1676,2.1678,2.168,2.1677,2.168,2.1682,0,0,0,0,0,2.124,2.1275,2.128,2.1293,2.1364,2.1411,2.142,2.1442,2.1435,2.1452,2.1477,2.1482,2.1571,2.1556,2.1568,2.1587,2.1675,2.1678,2.168,2.1676,2.1679,2.1682,0,0,0,0,0,0,2.1231,2.1281,2.1287,2.1338,2.137,2.1414,2.1437,2.1444,2.1479,2.1477,2.1502,2.1511,2.1555,2.1576,2.1558,2.1631,2.1623,2.1627,2.1616,2.1619,2.1621,2.1615,2.1561,0,0,0,0,0,2.1235,2.127,2.1312,2.1353,2.1368,2.14,2.1421,2.1435,2.1469,2.1482,2.151,2.1542,2.1577,2.1599,2.1634,2.1681,2.1689,2.1699,2.1701,2.1703,2.1707,2.1731,2.1735,2.1689,2.1689,2.1689,0,0,2.1243,2.1275,2.1296,2.1351,2.1378,2.1412,2.1411,2.1448,2.1474,2.1488,2.1532,2.1553,2.159,2.1636,2.1658,2.1655,2.1721,2.1706,2.1707,2.171,2.1734,2.1738,2.1742,2.1691,2.169,2.169,0,0,2.1275,2.1304,2.134,2.1366,2.1407,2.1427,2.1435,2.1478,2.1492,2.1538,2.1548,2.1578,2.1639,2.1664,2.1685,2.1725,2.1731,2.1736,2.1747,2.1771,2.1774,2.1778,2.179,2.1795,2.1739,2.1739,2.1739,0,2.128,2.1334,2.1357,2.1393,2.1417,2.1431,2.1467,2.1491,2.154,2.1555,2.1551,2.1626,2.1652,2.1703,2.1713,2.173,2.1739,2.173,2.1772,2.1776,2.1779,2.1792,2.1796,2.1739,2.1739,2.1739,2.1739,0,2.1336,2.1373,2.1397,2.1444,2.1471,2.1506,2.1534,2.1557,2.1568,2.1588,2.1633,2.1665,2.1705,2.1718,2.173,2.1771,2.1767,2.1768,2.176,2.1783,2.1795,2.18,2.174,2.1739,2.1739,2.1739,0,0,2.1365,2.1424,2.1432,2.1453,2.1498,2.1526,2.1562,2.1602,2.162,2.1654,2.1683,2.1733,2.1733,2.1756,2.1771,2.1791,2.1819,2.1789,2.179,2.1792,2.1864,2.1862,2.1867,2.1823,2.1825,2.1825,2.186,0,2.1401,2.1466,2.1487,2.1541,2.1574,2.1588,2.1619,2.1649,2.1668,2.1698,2.172,2.1754,2.1753,2.1767,2.1788,2.1811,2.1833,2.1809,2.1849,2.185,2.1838,2.1874,2.1873,2.1904,2.1865,2.1866,2.1866,0,2.1452,2.1486,2.1543,2.1582,2.1597,2.1624,2.1661,2.1691,2.1724,2.1737,2.1763,2.1775,2.1811,2.1802,2.1851,2.1834,2.1851,2.1865,2.1867,2.187,2.1859,2.1877,2.1915,2.1919,2.1874,2.1874,2.1873,0,2.1464,2.1525,2.1566,2.1583,2.1631,2.1649,2.167,2.1703,2.1725,2.1757,2.1771,2.1807,2.1827,2.1854,2.1875,2.1866,2.1921,2.1914,2.1931,2.1931,2.1941,2.194,2.1981,2.1955,2.1955,2.1955,2.1955,0,2.1502,2.1535,2.1572,2.1597,2.1635,2.1658,2.1694,2.1715,2.1744,2.1773,2.1787,2.1813,2.184,2.187,2.1886,2.1923,2.1932,2.1942,2.1946,2.194,2.1939,2.1951,2.1949,2.1956,2.1956,2.1956,2.1955,0,2.1522,2.1548,2.1593,2.1635,2.1646,2.1671,2.1706,2.173,2.175,2.1786,2.1795,2.1826,2.1861,2.1885,2.193,2.1942,2.1981,2.1985,2.197,2.1971,2.1987,2.1984,2.2036,2.2043,2.2013,2.2014,2.2014,0,2.1543,2.1569,2.1613,2.1634,2.1654,2.1687,2.1709,2.1733,2.1756,2.1796,2.1814,2.1851,2.1881,2.1936,2.1962,2.1996,2.2,2.2016,2.2005,2.1998,2.1998,2.1996,2.1998,2.2017,2.2017,2.2017,2.2017,0,2.1578,2.1589,2.1622,2.1658,2.1684,2.1714,2.1744,2.176,2.1788,2.1813,2.1849,2.1872,2.1918,2.1953,2.1989,2.2009,2.2017,2.2021,2.2026,2.202,2.2009,2.2013,2.1973,2.2019,2.2019,2.2019,2.2019,2.2019,2.1598,2.1621,2.1656,2.1691,2.1716,2.1743,2.1767,2.179,2.1821,2.186,2.1872,2.1909,2.1941,2.1991,2.2011,2.204,2.2038,2.2047,2.2048,2.205,2.2049,2.2006,2.2046,2.2046,2.2046,2.2046,2.2046,0,2.1632,2.1655,2.1687,2.1728,2.1755,2.1761,2.1794,2.1816,2.1849,2.1878,2.1907,2.1948,2.1982,2.201,2.2045,2.2062,2.2067,2.207,2.2068,2.2073,2.2049,2.204,2.2066,2.2066,2.2066,2.2066,2.2066,2.2066,2.1653,2.1692,2.1707,2.1758,2.178,2.1817,2.1835,2.186,2.1883,2.1928,2.1956,2.1975,2.2003,2.204,2.2071,2.2078,2.2089,2.2092,2.21,2.2077,2.2074,2.2072,2.2064,2.2094,2.2094,2.2121,2.2121,2.2121]},{"header":{"parameterUnit":"m.s-1","parameterCategory":1,"la1":30.2991,"la2":30.254,"lo1":-89.0895,"lo2":-89.0444,"dy":0.0017,"dx":0.0017,"nx":28,"ny":28,"refTime":"2024-06-23T03:00:00:Z","depth":0,"parameterNumber":3,"parameterNumberName":"V-component_of_WINDS"},"data":[0,0,0,0,0,0,0,0,0,0,0,0,0,0,0,0,0,0,0,0,0,0,0,0,0,0,0,0,0,0,0,0,0,0,0,0,0,0,0,0,0,0,0,0,0,0,0,0,0,0,0,0,0,0,0,0,0,0,2.035,2.035,0,2.0333,2.0333,2.0332,2.0275,2.0274,2.0272,2.0271,2.0254,2.0255,2.0255,0,0,0,0,0,0,0,0,0,0,0,0,0,2.0331,2.0332,2.035,2.035,2.0349,2.0333,2.0333,2.0332,2.0275,2.0274,2.0272,2.0271,2.0254,2.0254,2.0255,0,0,0,0,0,0,0,0,0,0,0,0,0,2.0329,2.0332,2.035,2.0319,2.0316,2.0333,2.0333,2.0332,2.0276,2.0274,2.0272,2.027,2.0253,2.0254,2.0255,2.0301,0,0,2.0259,2.0259,0,0,0,0,0,0,0,0,2.033,2.033,2.0324,2.0321,2.0318,2.0304,2.032,2.0322,2.0276,2.0291,2.0271,2.0269,2.0272,2.0272,2.0273,2.03,2.0299,2.0259,2.026,2.026,2.026,0,0,0,0,0,0,0,2.033,2.033,2.0343,2.0324,2.032,2.0305,2.0303,2.032,2.0293,2.0289,2.0285,2.0284,2.027,2.0272,2.0272,2.0299,2.0259,2.026,2.0261,2.0261,2.0361,2.0363,0,0,0,0,0,0,2.0334,2.0331,2.0344,2.0343,2.0319,2.0307,2.0305,2.031,2.0292,2.0288,2.0286,2.0281,2.0271,2.0271,2.0271,2.0322,2.026,2.0261,2.0262,2.0359,2.0362,2.0364,0,0,0,0,0,0,2.0334,2.0336,2.0344,2.0336,2.0336,2.031,2.0317,2.0311,2.0313,2.0289,2.0284,2.0292,2.0269,2.0269,2.0293,2.032,2.0262,2.0263,2.0357,2.036,2.0363,2.0424,0,0,0,0,0,0,2.0334,2.0336,2.0354,2.0336,2.0336,2.0368,2.0318,2.0312,2.0315,2.0309,2.0294,2.029,2.0268,2.0292,2.0295,2.0321,2.0264,2.0354,2.0358,2.0362,2.042,2.0429,2.0437,0,0,0,0,0,2.0333,2.0372,2.0355,2.0357,2.0358,2.0369,2.0369,2.0343,2.0317,2.0334,2.0319,2.029,2.0317,2.0295,2.0297,2.0324,2.0352,2.0357,2.0361,2.0416,2.0427,2.0437,0,0,0,0,0,0,2.0394,2.037,2.035,2.0385,2.0379,2.036,2.038,2.0356,2.0358,2.0353,2.032,2.0317,2.0345,2.0337,2.0313,2.0366,2.033,2.0335,2.0371,2.0381,2.039,2.0391,2.0264,0,0,0,0,0,2.0411,2.0423,2.0401,2.0434,2.0432,2.0407,2.0411,2.0391,2.0384,2.0382,2.0369,2.0363,2.037,2.0375,2.038,2.0418,2.0414,2.0438,2.0447,2.0454,2.0458,2.0476,2.0486,2.0378,2.0378,2.0378,0,0,2.0447,2.0435,2.0445,2.0445,2.0439,2.0451,2.0405,2.0421,2.0429,2.0384,2.0406,2.0396,2.0387,2.0418,2.0431,2.0412,2.0487,2.0459,2.0465,2.0466,2.0482,2.0492,2.0501,2.0382,2.0381,2.038,0,0,2.0519,2.0512,2.0537,2.0531,2.0522,2.0505,2.0511,2.0495,2.0486,2.0507,2.0473,2.0483,2.0496,2.049,2.049,2.0558,2.0531,2.056,2.0605,2.0623,2.0631,2.0639,2.0661,2.067,2.0565,2.0565,2.0565,0,2.0565,2.0582,2.0553,2.057,2.0571,2.053,2.0555,2.0551,2.0544,2.0545,2.0524,2.0538,2.053,2.0558,2.0575,2.0576,2.0581,2.0562,2.0632,2.0639,2.0646,2.0667,2.0676,2.0569,2.0568,2.0568,2.0568,0,2.0638,2.0651,2.0672,2.0666,2.0669,2.069,2.0664,2.067,2.065,2.0634,2.0655,2.0644,2.0645,2.065,2.0631,2.0676,2.0664,2.0638,2.0601,2.066,2.068,2.0688,2.0574,2.0573,2.0571,2.0571,0,0,2.0748,2.0724,2.0733,2.0728,2.0715,2.0723,2.0742,2.0743,2.0749,2.0745,2.0759,2.077,2.0746,2.0745,2.0724,2.074,2.0793,2.0712,2.0711,2.0726,2.0839,2.0858,2.0868,2.0775,2.0777,2.0778,2.084,0,2.0815,2.0845,2.0819,2.0854,2.0864,2.0825,2.0841,2.0834,2.082,2.0826,2.0811,2.0819,2.0787,2.0786,2.08,2.0784,2.0815,2.0779,2.0787,2.0788,2.079,2.0879,2.0899,2.0958,2.0847,2.0849,2.085,0,2.0897,2.0896,2.0932,2.0914,2.0918,2.0933,2.0931,2.0938,2.0928,2.0917,2.0915,2.089,2.0906,2.087,2.0891,2.0867,2.0868,2.0861,2.0862,2.0862,2.0822,2.0879,2.0976,2.0984,2.0862,2.0861,2.086,0,2.0972,2.098,2.1002,2.1,2.098,2.0991,2.0983,2.0972,2.0974,2.0972,2.0972,2.0973,2.0973,2.0973,2.0948,2.0924,2.0972,2.0934,2.0962,2.0962,2.0973,2.0972,2.107,2.0976,2.0976,2.0976,2.0976,0,2.1048,2.1072,2.1035,2.1048,2.1073,2.1042,2.1067,2.1055,2.1045,2.1055,2.1022,2.1032,2.0998,2.1004,2.0985,2.1004,2.1005,2.0996,2.099,2.0998,2.0999,2.0998,2.0993,2.0978,2.0978,2.0977,2.0977,0,2.1136,2.1112,2.1133,2.1113,2.1108,2.1127,2.1108,2.112,2.1103,2.1116,2.1117,2.1091,2.1097,2.1072,2.1073,2.106,2.1089,2.1077,2.1092,2.1088,2.1117,2.1114,2.1217,2.1228,2.1128,2.1129,2.1129,0,2.1186,2.1203,2.1183,2.1187,2.1181,2.1189,2.119,2.116,2.1162,2.1152,2.1164,2.1167,2.1167,2.1178,2.1159,2.1159,2.1146,2.1182,2.1146,2.1153,2.1145,2.1144,2.1145,2.1189,2.1191,2.1192,2.1193,0,2.1277,2.1264,2.1267,2.1266,2.1268,2.1266,2.1261,2.1266,2.1234,2.1238,2.1243,2.1243,2.1244,2.1247,2.1243,2.1234,2.1208,2.1204,2.121,2.1218,2.1226,2.1221,2.1111,2.1202,2.1201,2.12,2.12,2.1199,2.1346,2.1359,2.1346,2.135,2.1344,2.134,2.1349,2.1333,2.1336,2.1334,2.1316,2.1324,2.1313,2.1305,2.1299,2.1304,2.1287,2.1297,2.1299,2.1301,2.1306,2.1226,2.1304,2.1304,2.1303,2.1303,2.1303,0,2.1434,2.1424,2.1428,2.1422,2.1425,2.14,2.1393,2.1397,2.1404,2.1396,2.1397,2.1402,2.1404,2.1384,2.1384,2.1391,2.1379,2.1392,2.1391,2.1389,2.1322,2.1316,2.1402,2.1402,2.1402,2.1402,2.1402,2.1402,2.148,2.1499,2.1485,2.15,2.1489,2.1497,2.1495,2.149,2.1483,2.149,2.1492,2.1479,2.1466,2.1464,2.1464,2.1458,2.1459,2.1476,2.1466,2.1404,2.1394,2.1385,2.1379,2.1477,2.1477,2.1532,2.1533,2.1533]}]]